Вернуться в каталог

STARLINK-36621

АктивенСвязьSSO
NORAD 67561·PAYLOAD·🇺🇸 United States

Запущен Jan 25, 2026 с Vandenberg Space Force Base

Loading…

Ближайшие Пролёты (ближайшие 24 часа)

TLE

СвежийSource: CelesTrak SupGP

Эпоха: Sep 14, 2026, 22:37 UTC

1 67561C 26016A   26257.94284722 -.00008331  00000+0 -25848-3 0  2573
2 67561  97.2847 316.6057 0001104 107.4820 252.2871 15.33459847    17

Отслеживайте STARLINK-36621 в реальном времени с AllMySat

Download on the App Store